Weather History for Imperial, NE

Change the Weather History Date:

Saturday, December 7, 2013

  Actual Average Record
Temperature  
Mean Temperature 3 °F 30 °F  
Max Temperature 9 °F 42 °F 72 °F (1984)
Min Temperature -4 °F 17 °F -16 °F (1909)
Degree Days  
Heating Degree Days 62 36  
Month to date heating degree days 302 243  
Cooling Degree Days 0 0  
Month to date cooling degree days 0 0  
Year to date cooling degree days 1166 963  
Moisture  
Dew Point -4 °F    
Average Humidity 71    
Maximum Humidity 87    
Minimum Humidity 55    
Precipitation  
Precipitation T in 0.02 in 0.50 in (1924)
Sea Level Pressure  
Sea Level Pressure 30.42 in    
Wind  
Wind Speed 15 mph (SE)    
Max Wind Speed 23 mph    
Max Gust Speed 28 mph    
Visibility 9 miles    
Events Snow    
T = Trace of Precipitation, MM = Missing Value Source: NWS Daily Summary

Daily Weather History Graph

Daily Weather History Graph

Search for Another Location

Airport:

Trip Planner

Search our weather history database for the weather conditions in past years. The results will help you decide how hot, cold, wet, or windy it might be!

Date:

Astronomy

Dec. 07, 2013 Rise Set
Actual Time 6:56 AM MST 4:19 PM MST
Civil Twilight 6:26 AM MST 4:50 PM MST
Nautical Twilight 5:51 AM MST 5:24 PM MST
Astronomical Twilight 5:18 AM MST 5:57 PM MST
Moon 10:42 AM MST (12/7) 10:04 PM MST (12/7)
Length of Visible Light 10h 24m
Length of Day
9h 22m
Waxing Crescent, 30% of the Moon is Illuminated
Dec 7
Waxing Crescent
Dec 9
First Quarter
Dec 17
Full
Dec 25
Last Quarter
Jan 1
New

Hourly Weather History & Observations

Time (MST) Temp. Windchill Dew Point Humidity Pressure Visibility Wind Dir Wind Speed Gust Speed Precip Events Conditions
12:53 AM -2.9 °F -17.7 °F -9.0 °F 75% 30.63 in 10.0 mi SE 8.1 mph - N/A   Clear
1:53 AM -2.9 °F -19.8 °F -9.9 °F 72% 30.62 in 10.0 mi SE 10.4 mph - N/A   Clear
2:53 AM -2.9 °F -18.8 °F -9.0 °F 75% 30.61 in 10.0 mi SE 9.2 mph - N/A   Clear
3:53 AM -0.9 °F -16.4 °F -8.0 °F 72% 30.58 in 10.0 mi SE 9.2 mph - N/A   Clear
4:53 AM -0.9 °F -16.4 °F -8.0 °F 72% 30.59 in 10.0 mi SE 9.2 mph - N/A   Mostly Cloudy
5:53 AM 1.0 °F -15.8 °F -6.0 °F 72% 30.59 in 10.0 mi SE 11.5 mph - N/A   Overcast
6:53 AM 1.9 °F -15.5 °F -6.0 °F 69% 30.59 in 10.0 mi SE 12.7 mph - N/A   Overcast
7:53 AM 1.9 °F -16.9 °F -5.1 °F 72% 30.58 in 10.0 mi SE 15.0 mph - N/A   Overcast
8:53 AM 5.0 °F -13.6 °F -5.1 °F 63% 30.58 in 10.0 mi SE 16.1 mph - N/A   Overcast
9:30 AM 5.0 °F -14.2 °F -5.8 °F 61% 30.35 in 10.0 mi SE 17.3 mph 23.0 mph N/A   Overcast
9:45 AM 5.0 °F -14.7 °F -5.8 °F 61% 30.35 in 10.0 mi SSE 18.4 mph 24.2 mph N/A   Overcast
9:53 AM 5.0 °F -14.7 °F -5.1 °F 63% 30.57 in 10.0 mi SE 18.4 mph - N/A   Overcast
10:53 AM 7.0 °F -13.1 °F -5.1 °F 58% 30.52 in 10.0 mi SSE 20.7 mph 25.3 mph N/A   Overcast
11:53 AM 8.1 °F -10.7 °F -5.1 °F 55% 30.47 in 10.0 mi SSE 18.4 mph 26.5 mph N/A   Overcast
12:53 PM 9.0 °F -10.0 °F -5.1 °F 53% 30.41 in 10.0 mi SSE 19.6 mph 27.6 mph N/A   Overcast
1:53 PM 8.1 °F -11.2 °F -4.0 °F 58% 30.36 in 10.0 mi SE 19.6 mph 25.3 mph N/A   Overcast
2:53 PM 7.0 °F -12.1 °F -2.9 °F 64% 30.35 in 10.0 mi SSE 18.4 mph - 0.00 in   Overcast
3:53 PM 7.0 °F -12.1 °F -2.9 °F 64% 30.33 in 8.0 mi SE 18.4 mph - N/A   Overcast
4:53 PM 7.0 °F -11.6 °F -2.0 °F 67% 30.32 in 10.0 mi SE 17.3 mph 23.0 mph 0.00 in   Overcast
5:53 PM 7.0 °F -12.6 °F -2.9 °F 64% 30.31 in 10.0 mi SE 19.6 mph 25.3 mph N/A   Overcast
6:53 PM 6.1 °F -10.9 °F -0.9 °F 73% 30.31 in 6.0 mi SE 13.8 mph - N/A   Haze
7:53 PM 6.1 °F -12.2 °F 1.0 °F 80% 30.29 in 5.0 mi SE 16.1 mph - N/A   Haze
8:16 PM 6.8 °F -13.4 °F 1.4 °F 79% 30.07 in 4.0 mi SE 20.7 mph - N/A   Haze
8:53 PM 5.0 °F -14.7 °F 1.0 °F 84% 30.26 in 5.0 mi SE 18.4 mph - N/A   Overcast
9:53 PM 5.0 °F -14.2 °F 1.0 °F 84% 30.25 in 7.0 mi SE 17.3 mph - N/A   Overcast
10:53 PM 5.0 °F -14.2 °F 1.0 °F 84% 30.21 in 5.0 mi SE 17.3 mph - N/A   Overcast
11:53 PM 5.0 °F -13.0 °F 1.9 °F 87% 30.17 in 4.0 mi SE 15.0 mph - 0.00 in Snow Light Snow